#timestamp,LO_Frequency,Hit,StdDev 
1606474815.9,286046999.2,N
1606474835.7,286046999.3,N
1606474855.5,286046998.4,N
1606474875.4,286047000.9,N
1606474895.2,286046998.3,N
1606474915.0,286046998.5,N
1606474915.9,286046998.5,N
1606474935.8,286046998.5,N
1606474955.6,286046998.7,N
1606474975.4,286046998.9,N
1606474995.3,286047000.6,N
1606475015.1,286046999.9,N
1606475016.0,286046999.9,N
1606475035.8,286046999.8,N
1606475055.7,286047000.1,N
1606475075.5,286047002.6,N
1606475095.3,286047000.1,N
1606475115.2,286047000.2,N
1606475135.9,286047000.1,N
1606475155.7,286047000.3,N
1606475175.6,286046999.7,N
1606475195.4,286047002.2,N
1606475215.2,286047002.7,N
1606475235.1,286047002.7,N
1606475236.0,286047002.7,N
1606475255.8,286047002.5,N
1606475275.6,286047002.6,N
1606475295.5,286047002.3,N
1606475315.3,286047002.5,N
1606475335.1,286047002.1,N
1606475355.9,286047002.1,N
1606475375.7,286047001.9,N
1606475395.5,286047002.4,N
1606475415.4,286047002.5,N
1606475435.2,286047001.4,N
1606475455.0,286047002.3,N
1606475455.9,286047002.3,N
1606475475.8,286047002.3,N
1606475495.6,286047000.1,N
1606475515.4,286047002.0,N
1606475535.3,286047004.2,Y
1606475555.1,286047002.6,P
1606475556.0,286047002.6,P
1606475575.8,286047002.8,P
1606475595.7,286046999.7,N
1606475615.5,286047000.4,N
1606475635.3,286047000.5,N
1606475655.2,286047000.9,N
1606475675.9,286047000.0,N
1606475695.7,286047002.2,N
1606475715.6,286047001.5,N
1606475735.4,286047002.1,N
1606475755.2,286047002.8,N
1606475775.1,286047002.2,N
1606475776.0,286047002.2,N
1606475795.8,286047002.2,N
1606475815.6,286047001.6,N
1606475835.5,286047002.6,N
1606475855.3,286047002.5,N
1606475875.1,286047001.6,N
1606475895.9,286046999.7,N
1606475915.7,286047002.3,N
1606475935.5,286047002.6,N
1606475955.4,286047002.3,N
1606475975.2,286047002.4,N
1606475995.0,286047002.2,N
1606475995.9,286047002.2,N
1606476015.8,286047000.4,N
1606476035.6,286047002.7,N
1606476055.4,286047001.4,N
1606476075.3,286047002.1,N
1606476095.1,286047002.3,N
1606476096.0,286047002.3,N
1606476115.8,286047000.7,N
1606476135.7,286046998.4,N
1606476155.5,286046998.2,N
1606476175.3,286046998.6,N
1606476195.2,286046999.9,N
1606476215.9,286047000.1,N
1606476235.7,286047000.2,N
1606476255.6,286046999.7,N
1606476275.4,286047002.7,N
1606476295.2,286047002.6,N
1606476315.1,286047001.7,N
1606476316.0,286047001.7,N
1606476335.8,286047002.0,N
1606476355.6,286047002.0,N
1606476375.5,286047001.8,N
1606476395.3,286047002.1,N
1606476415.1,286046999.8,N
1606476435.9,286047001.5,N
1606476455.7,286047001.5,N
1606476475.5,286047001.9,N
1606476495.4,286047002.2,N
1606476515.2,286047001.9,N
1606476535.0,286047002.1,N
1606476535.9,286047002.1,N
1606476555.8,286047002.6,N
1606476575.6,286047001.6,N
1606476595.4,286047002.0,N
1606476615.3,286047001.5,N
1606476635.1,286047001.5,N
1606476636.0,286047001.5,N
1606476655.8,286047001.9,N
1606476675.7,286047002.4,N
1606476695.5,286046999.9,N
1606476715.3,286046999.8,N
1606476735.2,286047001.3,N
1606476755.9,286047004.4,Y
1606476775.7,286047002.3,P
1606476795.6,286047000.2,N
1606476815.4,286047000.8,N
1606476835.2,286047001.0,N
1606476855.1,286046999.9,N
1606476856.0,286046999.9,N
1606476875.8,286046999.7,N
1606476895.6,286047001.2,N
1606476915.5,286047000.9,N
1606476935.3,286047001.1,N
1606476955.1,286046998.7,N
1606476975.9,286047000.7,N
1606476995.7,286047000.9,N
1606477015.5,286046998.2,N
1606477035.4,286046998.5,N
1606477055.2,286046997.0,N
1606477075.0,286046999.2,N
1606477075.9,286046999.2,N
1606477095.8,286046996.8,N
1606477115.6,286046997.2,N
1606477135.4,286046999.1,N
1606477155.3,286046996.5,N
1606477175.1,286046996.8,N
1606477176.0,286046996.8,N
1606477195.8,286046997.9,N
1606477215.7,286046997.9,N
1606477235.5,286046995.1,N
1606477255.3,286046997.5,N
1606477275.2,286046997.2,N
1606477295.9,286046997.6,N
1606477315.7,286046995.3,N
1606477335.6,286046996.0,N
1606477355.4,286046993.9,Y
1606477375.2,286046996.2,P
1606477395.1,286046997.4,N
1606477396.0,286046997.4,N
1606477415.8,286046997.8,N
1606477435.6,286046997.6,Y
1606477455.5,286046999.5,P
1606477475.3,286046998.1,N
1606477495.1,286047001.0,N
1606477515.9,286046998.8,N
1606477535.7,286046999.6,N
1606477555.5,286046999.0,N
1606477575.4,286046996.5,Y
1606477595.2,286046998.1,P
1606477615.0,286046997.1,P
1606477615.9,286046997.1,P
1606477635.8,286046996.7,Y
1606477655.6,286046999.9,P
1606477675.4,286047000.6,N
1606477695.3,286046998.5,N
1606477715.1,286047000.4,N
1606477716.0,286047000.4,N
1606477735.8,286047000.7,N
1606477755.7,286046996.7,Y
1606477775.5,286046998.9,P
1606477795.3,286046999.0,N
1606477815.2,286046998.6,P
1606477835.9,286046998.7,Y
1606477855.7,286046999.9,P
1606477875.6,286046998.9,N
1606477895.4,286047000.9,N
1606477915.2,286047001.0,N
1606477935.1,286046998.6,N
1606477936.0,286046998.6,N
1606477955.8,286046998.7,N
1606477975.6,286046998.1,N
1606477995.5,286046996.5,Y
1606478015.3,286047001.1,P
1606478035.1,286046998.6,N
1606478055.9,286046998.2,N
1606478075.7,286046999.0,N
1606478095.5,286046998.8,N
1606478115.4,286047011.9,Y
1606478135.2,286046998.6,P
1606478155.0,286047001.0,P
1606478155.9,286047001.0,N
1606478175.8,286047000.4,N
1606478195.6,286047000.5,N
1606478215.4,286046998.2,N
1606478235.3,286046999.1,N
1606478255.1,286046996.5,Y
1606478275.8,286046998.6,P
1606478295.7,286046999.6,N
1606478315.5,286046998.7,N
1606478335.3,286046998.9,N
1606478355.2,286046999.0,N
1606478375.0,286046997.2,Y
1606478375.9,286046997.2,P
1606478395.7,286046999.3,N
